timestamp,wind_dir_avg,wind_spd_max_dir,wind_spd_avg,wind_spd_gust,battery_voltage,lat,long
2018-06-07 00:00:00+00:00,11.0,10.0,2.96,3.43,,47.59359,-54.27349
2018-06-07 00:10:00+00:00,22.0,29.0,3.47,4.35,,47.59359,-54.27349
2018-06-07 00:20:00+00:00,15.0,16.0,3.77,4.06,,47.59359,-54.27349
2018-06-07 00:30:00+00:00,16.0,12.0,2.09,2.36,,47.59359,-54.27349
2018-06-07 00:40:00+00:00,3.0,5.0,2.35,2.64,,47.59359,-54.27349
2018-06-07 00:50:00+00:00,15.0,15.0,2.92,3.46,,47.59359,-54.27349
2018-06-07 01:00:00+00:00,23.0,30.0,3.17,3.62,,47.59359,-54.27349
2018-06-07 01:10:00+00:00,20.0,21.0,2.75,3.48,,47.59359,-54.27349
2018-06-07 01:20:00+00:00,32.0,31.0,2.83,3.36,,47.59359,-54.27349
2018-06-07 01:30:00+00:00,36.0,43.0,2.36,2.64,,47.59359,-54.27349
2018-06-07 01:40:00+00:00,52.0,54.0,2.68,3.2,,47.59359,-54.27349
2018-06-07 01:50:00+00:00,140.0,147.0,2.29,2.8,,47.59359,-54.27349
2018-06-07 02:00:00+00:00,157.0,164.0,1.84,2.41,,47.59359,-54.27349
2018-06-07 02:10:00+00:00,124.0,116.0,1.52,1.86,,47.59359,-54.27349
2018-06-07 02:20:00+00:00,94.0,88.0,1.28,1.92,,47.59359,-54.27349
2018-06-07 02:30:00+00:00,160.0,145.0,0.74,1.25,,47.59359,-54.27349
2018-06-07 02:40:00+00:00,169.0,181.0,1.07,1.55,,47.59359,-54.27349
2018-06-07 02:50:00+00:00,119.0,118.0,0.51,0.63,,47.59359,-54.27349
2018-06-07 03:00:00+00:00,68.0,64.0,0.77,1.26,,47.59359,-54.27349
2018-06-07 03:10:00+00:00,84.0,81.0,0.86,1.23,,47.59359,-54.27349
2018-06-07 03:20:00+00:00,81.0,89.0,1.12,1.5,,47.59359,-54.27349
2018-06-07 03:30:00+00:00,109.0,121.0,1.22,1.71,,47.59359,-54.27349
2018-06-07 03:40:00+00:00,91.0,104.0,0.46,0.72,,47.59359,-54.27349
2018-06-07 03:50:00+00:00,349.0,351.0,1.23,1.69,,47.59359,-54.27349
2018-06-07 04:00:00+00:00,352.0,349.0,1.37,1.54,,47.59359,-54.27349
2018-06-07 04:10:00+00:00,10.0,9.0,1.23,1.43,,47.59359,-54.27349
2018-06-07 04:20:00+00:00,8.0,5.0,1.32,1.54,,47.59359,-54.27349
2018-06-07 04:30:00+00:00,32.0,35.0,2.02,2.19,,47.59359,-54.27349
2018-06-07 04:40:00+00:00,53.0,55.0,2.59,2.75,,47.59359,-54.27349
2018-06-07 04:50:00+00:00,87.0,88.0,1.84,1.97,,47.59359,-54.27349
2018-06-07 05:00:00+00:00,98.0,91.0,1.83,2.16,,47.59359,-54.27349
2018-06-07 05:10:00+00:00,153.0,157.0,1.69,1.97,,47.59359,-54.27349
2018-06-07 05:20:00+00:00,157.0,161.0,1.52,1.74,,47.59359,-54.27349
2018-06-07 05:30:00+00:00,149.0,187.0,0.4,0.79,,47.59359,-54.27349
2018-06-07 05:40:00+00:00,93.0,82.0,1.42,1.87,,47.59359,-54.27349
2018-06-07 05:50:00+00:00,114.0,114.0,1.74,2.35,,47.59359,-54.27349
2018-06-07 06:00:00+00:00,131.0,138.0,2.33,2.61,,47.59359,-54.27349
2018-06-07 06:10:00+00:00,121.0,127.0,2.3,3.02,,47.59359,-54.27349
2018-06-07 06:20:00+00:00,108.0,125.0,1.52,2.65,,47.59359,-54.27349
2018-06-07 06:30:00+00:00,144.0,148.0,2.38,2.94,,47.59359,-54.27349
2018-06-07 06:40:00+00:00,155.0,153.0,2.92,3.08,,47.59359,-54.27349
2018-06-07 06:50:00+00:00,142.0,147.0,1.78,2.16,,47.59359,-54.27349
2018-06-07 07:00:00+00:00,157.0,156.0,1.87,2.24,,47.59359,-54.27349
2018-06-07 07:10:00+00:00,169.0,168.0,1.84,1.96,,47.59359,-54.27349
2018-06-07 07:20:00+00:00,175.0,175.0,1.74,1.82,,47.59359,-54.27349
2018-06-07 07:30:00+00:00,191.0,189.0,1.35,1.63,,47.59359,-54.27349
2018-06-07 07:40:00+00:00,270.0,184.0,0.02,0.56,,47.59359,-54.27349
2018-06-07 07:50:00+00:00,331.0,336.0,0.77,0.98,,47.59359,-54.27349
2018-06-07 08:00:00+00:00,6.0,6.0,1.25,1.39,,47.59359,-54.27349
2018-06-07 08:10:00+00:00,12.0,13.0,1.69,1.86,,47.59359,-54.27349
2018-06-07 08:20:00+00:00,16.0,17.0,1.19,1.39,,47.59359,-54.27349
2018-06-07 08:30:00+00:00,23.0,21.0,0.77,0.84,,47.59359,-54.27349
2018-06-07 08:40:00+00:00,30.0,28.0,0.72,0.8,,47.59359,-54.27349
2018-06-07 08:50:00+00:00,51.0,50.0,1.2,1.27,,47.59359,-54.27349
2018-06-07 09:00:00+00:00,36.0,33.0,1.57,1.71,,47.59359,-54.27349
2018-06-07 09:10:00+00:00,23.0,20.0,1.75,2.1,,47.59359,-54.27349
2018-06-07 09:20:00+00:00,11.0,13.0,1.94,2.11,,47.59359,-54.27349
2018-06-07 09:30:00+00:00,10.0,11.0,1.64,1.72,,47.59359,-54.27349
2018-06-07 09:40:00+00:00,18.0,16.0,1.38,1.47,,47.59359,-54.27349
2018-06-07 09:50:00+00:00,16.0,16.0,1.2,1.28,,47.59359,-54.27349
2018-06-07 10:00:00+00:00,40.0,37.0,1.05,1.38,,47.59359,-54.27349
2018-06-07 10:10:00+00:00,39.0,42.0,1.61,1.74,,47.59359,-54.27349
2018-06-07 10:20:00+00:00,44.0,42.0,1.83,1.98,,47.59359,-54.27349
2018-06-07 10:30:00+00:00,49.0,50.0,2.26,2.35,,47.59359,-54.27349
2018-06-07 10:40:00+00:00,63.0,59.0,2.59,2.68,,47.59359,-54.27349
2018-06-07 10:50:00+00:00,67.0,66.0,2.67,2.88,,47.59359,-54.27349
2018-06-07 11:00:00+00:00,63.0,60.0,2.09,2.41,,47.59359,-54.27349
2018-06-07 11:10:00+00:00,60.0,62.0,2.24,2.6,,47.59359,-54.27349
2018-06-07 11:20:00+00:00,58.0,59.0,2.31,2.52,,47.59359,-54.27349
2018-06-07 11:30:00+00:00,63.0,61.0,2.28,2.73,,47.59359,-54.27349
2018-06-07 11:40:00+00:00,73.0,77.0,2.7,3.15,,47.59359,-54.27349
2018-06-07 11:50:00+00:00,84.0,83.0,3.19,3.29,,47.59359,-54.27349
2018-06-07 12:00:00+00:00,87.0,86.0,3.19,3.56,,47.59359,-54.27349
2018-06-07 12:10:00+00:00,87.0,83.0,2.35,2.9,,47.59359,-54.27349
2018-06-07 12:20:00+00:00,81.0,82.0,2.65,2.8,,47.59359,-54.27349
2018-06-07 12:30:00+00:00,81.0,81.0,2.49,2.65,,47.59359,-54.27349
2018-06-07 12:40:00+00:00,73.0,74.0,2.37,2.53,,47.59359,-54.27349
2018-06-07 12:50:00+00:00,69.0,70.0,2.6,2.84,,47.59359,-54.27349
2018-06-07 13:00:00+00:00,69.0,72.0,2.4,2.63,,47.59359,-54.27349
2018-06-07 13:10:00+00:00,68.0,70.0,2.43,2.7,,47.59359,-54.27349
2018-06-07 13:20:00+00:00,71.0,68.0,2.28,2.48,,47.59359,-54.27349
2018-06-07 13:30:00+00:00,47.0,49.0,2.28,2.59,,47.59359,-54.27349
2018-06-07 13:40:00+00:00,55.0,56.0,2.29,2.47,,47.59359,-54.27349
2018-06-07 13:50:00+00:00,52.0,54.0,1.69,2.07,,47.59359,-54.27349
2018-06-07 14:00:00+00:00,41.0,40.0,1.5,1.77,,47.59359,-54.27349
2018-06-07 14:10:00+00:00,43.0,43.0,2.05,2.26,,47.59359,-54.27349
2018-06-07 14:20:00+00:00,54.0,55.0,2.48,2.67,,47.59359,-54.27349
2018-06-07 14:30:00+00:00,36.0,42.0,2.13,2.66,,47.59359,-54.27349
2018-06-07 14:40:00+00:00,56.0,59.0,2.79,2.99,,47.59359,-54.27349
2018-06-07 14:50:00+00:00,57.0,58.0,2.66,2.76,,47.59359,-54.27349
2018-06-07 15:00:00+00:00,40.0,42.0,1.88,2.16,,47.59359,-54.27349
2018-06-07 15:10:00+00:00,52.0,50.0,2.09,2.2,,47.59359,-54.27349
2018-06-07 15:20:00+00:00,52.0,49.0,1.62,1.77,,47.59359,-54.27349
2018-06-07 15:30:00+00:00,36.0,39.0,1.65,1.83,,47.59359,-54.27349
2018-06-07 15:40:00+00:00,24.0,37.0,1.48,1.81,,47.59359,-54.27349
2018-06-07 15:50:00+00:00,2.0,357.0,2.08,2.35,,47.59359,-54.27349
2018-06-07 16:00:00+00:00,6.0,11.0,1.19,1.42,,47.59359,-54.27349
2018-06-07 16:10:00+00:00,0.0,359.0,1.71,1.84,,47.59359,-54.27349
2018-06-07 16:20:00+00:00,7.0,10.0,1.13,1.42,,47.59359,-54.27349
2018-06-07 16:30:00+00:00,354.0,357.0,1.3,1.4,,47.59359,-54.27349
2018-06-07 16:40:00+00:00,5.0,2.0,0.85,0.91,,47.59359,-54.27349
2018-06-07 16:50:00+00:00,9.0,10.0,1.26,1.36,,47.59359,-54.27349
2018-06-07 17:00:00+00:00,16.0,15.0,1.18,1.29,,47.59359,-54.27349
2018-06-07 17:10:00+00:00,34.0,31.0,0.89,1.1,,47.59359,-54.27349
2018-06-07 17:20:00+00:00,306.0,294.0,0.48,0.82,,47.59359,-54.27349
2018-06-07 17:30:00+00:00,235.0,237.0,0.51,0.58,,47.59359,-54.27349
2018-06-07 17:40:00+00:00,229.0,232.0,1.21,1.32,,47.59359,-54.27349
2018-06-07 17:50:00+00:00,232.0,234.0,1.73,1.92,,47.59359,-54.27349
2018-06-07 18:00:00+00:00,219.0,221.0,2.37,2.52,,47.59359,-54.27349
2018-06-07 18:10:00+00:00,218.0,219.0,2.92,3.15,,47.59359,-54.27349
2018-06-07 18:20:00+00:00,234.0,235.0,3.14,3.26,,47.59359,-54.27349
2018-06-07 18:30:00+00:00,280.0,282.0,3.39,3.59,,47.59359,-54.27349
2018-06-07 18:40:00+00:00,266.0,266.0,3.28,3.46,,47.59359,-54.27349
2018-06-07 18:50:00+00:00,268.0,270.0,2.63,2.87,,47.59359,-54.27349
2018-06-07 19:00:00+00:00,50.0,51.0,1.56,3.37,,47.59359,-54.27349
2018-06-07 19:10:00+00:00,83.0,208.0,0.28,1.07,,47.59359,-54.27349
2018-06-07 19:20:00+00:00,213.0,212.0,0.56,0.67,,47.59359,-54.27349
2018-06-07 19:30:00+00:00,262.0,267.0,1.13,1.37,,47.59359,-54.27349
2018-06-07 19:40:00+00:00,276.0,278.0,1.8,1.93,,47.59359,-54.27349
2018-06-07 19:50:00+00:00,270.0,270.0,2.01,2.11,,47.59359,-54.27349
2018-06-07 20:00:00+00:00,250.0,249.0,3.42,3.89,,47.59359,-54.27349
2018-06-07 20:10:00+00:00,229.0,225.0,5.15,5.73,,47.59359,-54.27349
2018-06-07 20:20:00+00:00,224.0,227.0,7.21,8.28,,47.59359,-54.27349
2018-06-07 20:30:00+00:00,232.0,232.0,8.46,9.26,,47.59359,-54.27349
2018-06-07 20:40:00+00:00,232.0,233.0,8.67,9.36,,47.59359,-54.27349
2018-06-07 20:50:00+00:00,227.0,225.0,7.92,8.81,,47.59359,-54.27349
2018-06-07 21:00:00+00:00,234.0,233.0,8.9,9.75,,47.59359,-54.27349
2018-06-07 21:10:00+00:00,231.0,232.0,9.08,9.87,,47.59359,-54.27349
2018-06-07 21:20:00+00:00,227.0,226.0,7.72,9.1,,47.59359,-54.27349
2018-06-07 21:30:00+00:00,221.0,222.0,7.87,8.61,,47.59359,-54.27349
2018-06-07 21:40:00+00:00,220.0,221.0,7.88,8.8,,47.59359,-54.27349
2018-06-07 21:50:00+00:00,223.0,226.0,8.11,8.96,,47.59359,-54.27349
2018-06-07 22:00:00+00:00,225.0,223.0,7.82,8.52,,47.59359,-54.27349
2018-06-07 22:10:00+00:00,224.0,222.0,7.91,8.52,,47.59359,-54.27349
2018-06-07 22:20:00+00:00,223.0,230.0,8.46,9.38,,47.59359,-54.27349
2018-06-07 22:30:00+00:00,223.0,224.0,8.45,9.29,,47.59359,-54.27349
2018-06-07 22:40:00+00:00,226.0,225.0,8.32,9.15,,47.59359,-54.27349
2018-06-07 22:50:00+00:00,223.0,220.0,7.95,8.73,,47.59359,-54.27349
2018-06-07 23:00:00+00:00,225.0,230.0,8.45,9.58,,47.59359,-54.27349
2018-06-07 23:10:00+00:00,225.0,222.0,8.06,8.79,,47.59359,-54.27349
2018-06-07 23:20:00+00:00,222.0,220.0,7.58,8.35,,47.59359,-54.27349
2018-06-07 23:30:00+00:00,228.0,227.0,7.31,7.87,,47.59359,-54.27349
2018-06-07 23:40:00+00:00,228.0,226.0,6.3,7.0,,47.59359,-54.27349
2018-06-07 23:50:00+00:00,227.0,226.0,6.83,7.56,,47.59359,-54.27349
